Weather in Denpasar

Indonesia     8°40′56″S   115°13′09″E
temp.,
°C
wind,
m/s
gust,
m/s
humid.,
%
clouds,
%
prec.,
mm/h
press.,
hPa
HPBL,
m
13 april, tue
tue1323:00+28w11715 0.0 1013271
02:00+26nnw22824 0.4 1011150
05:00+26nnw22823 1.3 1011121
08:00+26n22825 1.7 1013124
11:00+27s11735 0.1 1013274
14:00+28s33701 0.1 1010519
17:00+28s32695 0.0 1009624
20:00+28sse11690 0.0 1012653
14 april, wed
wed1423:00+27nne117547 0.0 1012274
02:00+26nw118193 0.0 1011237
05:00+25nnw118342 0.0 1011258
08:00+25nne11823 0.0 1013248
11:00+26se22773 0.0 1012373
14:00+28sse44725 0.0 1009589
17:00+28se44738 0.0 1009877
20:00+28se45735 0.6 1011900
15 april, thu
thu1523:00+28ese34748 0.5 1012564
02:00+27ese347515 1.7 1011768
05:00+27ene347615 1.5 1011570
08:00+28ese457569 1.8 1012863
11:00+28ese447689 1.6 1012712
14:00+28se457557 2.0 1009721
17:00+29se567259 0.1 1009981
20:00+29se67745 0.2 10111035
16 april, fri
fri1623:00+28ese467618 1.1 1012774
02:00+28ese447588 2.2 1011788
05:00+28e347371 0.1 1010900
08:00+28ese347512 0.3 1012727
11:00+28e337213 0.7 1012834
14:00+29se447142 0.7 1009686
17:00+29sse447276 0.0 1009740
20:00+28se447219 0.0 1011918
17 april, sat
sat1723:00+28se44735 0.8 1013800
02:00+28se457210 1.7 1012980
05:00
08:00+28ese457284 1.4 1014955
11:00+28ese456623 0.3 1014955
14:00+28se45665 0.3 1011842
17:00+28se45716 0.0 1011863
20:00+28se556948 0.0 10131048